STARLINK-3703, 52101

Orbit data source: Space-Track

STARLINK-3703, 52101 is a payload satellite owned by SpaceX/Seattle (US) in LEO that was launched on Sat, 19 Mar 2022 UTC via an FALCON 9 launch vehicle from the Air Force Eastern Test Range (AFETR). Payload-class satellites include a variety of spacecraft equipped with specific instruments for various scientific and technological missions. These include communications satellites like Starlink; space stations such as the ISS; scientific satellites like the Hubble; Earth observation satellites from companies like Planet Labs, Umbra, and HawkEye 360; GPS; miniature CubeSats for education and research; and military/defense satellites.

Loading next visibility...
Identifier
52101, 2022-029P
Orbit
LEO
Country
Flag of USUS
Related business
Manufacturer
SpaceX/Seattle
Mission
Operational Commercial Communications
Bus & Motor
STARLINK, Unknown motor
Mass
297 kg wet, ~275 kg dry
Launch date (UTC)
2022-03-19 (4 years ago)
Launch vehicle
FALCON 9
Launch site
Air Force Eastern Test Range (AFETR)
Object type
Payload
Rocket body
Debris
Shape & HBR
Box + 1 Pan, 10.1 m
Radar Cross Section
13.562 m², Large (>1 m²)

Expand to show TLE details & history
Last TLE update: 2 days ago

TLE from 2 days ago
0 STARLINK-3703
1 52101U 22029P   26171.47790332  .00000817  00000-0  69405-4 0  9990
2 52101  53.1601 347.7612 0001171  91.8868 268.2258 15.08834210236160
Epoch: 2026-06-20T11:28Z
TLE epoch observation values (Epoch: 2026-06-20T11:28:10.846Z)
Latitude
-0°
Longitude
-92.97595°
Altitude
540.678 km
Speed
7.593 km/s
True Right ascension
23h 11m 02s
True Declination
0° 00' 00"
Sunlit
Object was in daylight at epoch
Visualization orbit readout
Latitude
Unknown
Longitude
Unknown
Altitude
Unknown
Speed
Unknown
Apparent Right ascension
Unknown
Apparent Declination
Unknown
Sunlit
N/A
Visualization observer readout
Local Sidereal Time
21:33:32
Azimuth
Unknown
Elevation
Unknown
Doppler factor
Unknown
Orbital elements
Apogee altitude
540.825 km
Perigee altitude
539.205 km
Semi-major axis
6,918.152 km
Eccentricity
0.00012
Inclination
53.1601°
RAAN
347.7612°
Arg. of periapsis
91.8868°
True anomaly
268.21239°
Mean anomaly
268.2258°
Eccentric anomaly
268.21909°
Mean motion
3.77188 °/min
Orbital period
95.44 mins
BSTAR
0.000069405
Loading maneuver chart data...
Computing Atmospheric mass density...
Loading historical data...
Loading historical data...
Loading historical data...
Loading historical data...
Loading historical data...
Loading historical data...
Loading historical data...

Documentation

Showing up to 5 results
|